Cloquet, MN

10:51 AM CST on December 13, 2019 (GMT -0600)
Cloquet Carlton County

Weather History for KCOQ - October, 2019

Change the Weather History Date:

Wednesday, October 9, 2019

  Actual Average Record
Temperature  
Mean Temperature 60 °F -  
Max Temperature 71 °F 54 °F 75 °F (2003)
Min Temperature 50 °F 35 °F 28 °F (2000)
Degree Days  
Heating Degree Days 4    
Growing Degree Days 10 (Base 50)    
Moisture  
Dew Point 41 °F    
Average Humidity 51    
Maximum Humidity 71    
Minimum Humidity 31    
Precipitation  
Precipitation 0.00 in - - ()
Sea Level Pressure  
Sea Level Pressure 29.90 in    
Wind  
Wind Speed 7 mph ()    
Max Wind Speed 17 mph    
Max Gust Speed 31 mph    
Visibility 10.0 miles    
Events      
Averages and records for this station are not official NWS values.
T = Trace of Precipitation, MM = Missing Value Source: Averaged Metar Reports

Daily Weather History Graph

Daily Weather History Graph

Search for Another Location

Airport or City:

Astronomy

Oct. 09, 2019 Rise Set
Actual Time 7:19 AM CDT 6:34 PM CDT
Civil Twilight 6:48 AM CDT 7:04 PM CDT
Nautical Twilight 6:13 AM CDT 7:39 PM CDT
Astronomical Twilight 5:38 AM CDT 8:15 PM CDT
Moon 5:25 PM CDT (10/9) 2:45 AM CDT (10/9)
Length of Visible Light 12h 16m
Length of Day
11h 15m
Waxing Gibbous, 85% of the Moon is Illuminated
Oct 9
Waxing Gibbous
Oct 13
Full
Oct 21
Last Quarter
Oct 27
New
Nov 4
First Quarter

Hourly Weather History & Observations

Time (CDT) Temp. Dew Point Humidity Pressure Visibility Wind Dir Wind Speed Gust Speed Precip Events Conditions
12:15 AM 55.4 °F 37.4 °F 51% 29.91 in 10.0 mi SSE 6.9 mph - N/A   Clear
12:35 AM 55.4 °F 37.4 °F 51% 29.92 in 10.0 mi SSE 8.1 mph - N/A   Clear
12:55 AM 55.4 °F 37.4 °F 51% 29.91 in 10.0 mi South 8.1 mph - N/A   Clear
12:56 AM 55.4 °F 37.4 °F 51% 29.91 in 10.0 mi South 6.9 mph - N/A   Clear
1:15 AM 55.4 °F 37.4 °F 51% 29.92 in 10.0 mi SSE 6.9 mph - N/A   Clear
1:35 AM 55.4 °F 37.4 °F 51% 29.91 in 10.0 mi SSE 5.8 mph - N/A   Clear
1:36 AM 55.4 °F 39.2 °F 54% 29.91 in 10.0 mi South 6.9 mph - N/A   Clear
1:55 AM 55.4 °F 39.2 °F 54% 29.91 in 10.0 mi SSE 6.9 mph - N/A   Clear
2:15 AM 53.6 °F 39.2 °F 58% 29.91 in 10.0 mi SSE 6.9 mph - N/A   Clear
2:35 AM 53.6 °F 39.2 °F 58% 29.91 in 10.0 mi SE 5.8 mph - N/A   Clear
2:55 AM 53.6 °F 39.2 °F 58% 29.90 in 10.0 mi SSE 5.8 mph - N/A   Clear
3:15 AM 53.6 °F 39.2 °F 58% 29.90 in 10.0 mi SSE 4.6 mph - N/A   Clear
3:16 AM 53.6 °F 39.2 °F 58% 29.90 in 10.0 mi SSE 5.8 mph - N/A   Clear
3:35 AM 51.8 °F 39.2 °F 62% 29.90 in 10.0 mi SSE 4.6 mph - N/A   Clear
3:55 AM 51.8 °F 39.2 °F 62% 29.90 in 10.0 mi SSE 5.8 mph - N/A   Clear
4:15 AM 51.8 °F 41.0 °F 67% 29.90 in 10.0 mi SSE 4.6 mph - N/A   Clear
4:35 AM 51.8 °F 41.0 °F 67% 29.90 in 10.0 mi SSE 4.6 mph - N/A   Clear
4:36 AM 51.8 °F 41.0 °F 67% 29.90 in 10.0 mi SSE 5.8 mph - N/A   Clear
4:55 AM 51.8 °F 41.0 °F 67% 29.90 in 10.0 mi SE 5.8 mph - N/A   Clear
5:15 AM 51.8 °F 41.0 °F 67% 29.90 in 10.0 mi SSE 4.6 mph - N/A   Clear
5:16 AM 51.8 °F 41.0 °F 67% 29.90 in 10.0 mi SSE 5.8 mph - N/A   Clear
5:35 AM 51.8 °F 41.0 °F 67% 29.90 in 10.0 mi SSE 6.9 mph - N/A   Clear
5:55 AM 51.8 °F 41.0 °F 67% 29.90 in 10.0 mi SSE 4.6 mph - N/A   Clear
5:56 AM 51.8 °F 41.0 °F 67% 29.90 in 10.0 mi SSE 4.6 mph - N/A   Clear
6:15 AM 51.8 °F 41.0 °F 67% 29.90 in 10.0 mi SSE 4.6 mph - N/A   Clear
6:16 AM 51.8 °F 41.0 °F 67% 29.90 in 10.0 mi SSE 5.8 mph - N/A   Clear
6:35 AM 51.8 °F 41.0 °F 67% 29.90 in 10.0 mi SE 6.9 mph - N/A   Clear
6:36 AM 51.8 °F 41.0 °F 67% 29.90 in 10.0 mi SSE 6.9 mph - N/A   Clear
6:55 AM 51.8 °F 41.0 °F 67% 29.90 in 10.0 mi SE 5.8 mph - N/A   Clear
7:15 AM 51.8 °F 41.0 °F 67% 29.90 in 10.0 mi SE 4.6 mph - N/A   Clear
7:35 AM 50.0 °F 41.0 °F 71% 29.89 in 10.0 mi SE 4.6 mph - N/A   Clear
7:55 AM 50.0 °F 41.0 °F 71% 29.90 in 10.0 mi ESE 4.6 mph - N/A   Clear
8:15 AM 51.8 °F 41.0 °F 67% 29.90 in 10.0 mi SE 5.8 mph - N/A   Clear
8:16 AM 51.8 °F 41.0 °F 67% 29.90 in 10.0 mi SE 5.8 mph - N/A   Clear
8:35 AM 51.8 °F 42.8 °F 71% 29.90 in 10.0 mi SSE 8.1 mph - N/A   Clear
8:36 AM 51.8 °F 42.8 °F 71% 29.90 in 10.0 mi SSE 5.8 mph - N/A   Clear
8:58 AM 53.6 °F 42.8 °F 67% 29.90 in 10.0 mi SSE 8.1 mph - N/A   Clear
9:15 AM 55.4 °F 42.8 °F 63% 29.90 in 10.0 mi SSE 8.1 mph - N/A   Clear
9:16 AM 55.4 °F 42.8 °F 63% 29.90 in 10.0 mi SSE 8.1 mph - N/A   Clear
9:35 AM 57.2 °F 42.8 °F 59% 29.90 in 10.0 mi SSE 8.1 mph - N/A   Clear
9:36 AM 57.2 °F 42.8 °F 59% 29.90 in 10.0 mi SE 9.2 mph - N/A   Clear
9:55 AM 57.2 °F 42.8 °F 59% 29.90 in 10.0 mi South 12.7 mph - N/A   Clear
9:56 AM 57.2 °F 42.8 °F 59% 29.90 in 10.0 mi South 10.4 mph - N/A   Clear
10:15 AM 60.8 °F 42.8 °F 52% 29.90 in 10.0 mi SSE 8.1 mph - N/A   Clear
10:16 AM 60.8 °F 42.8 °F 52% 29.90 in 10.0 mi SSE 9.2 mph - N/A   Clear
10:35 AM 60.8 °F 42.8 °F 52% 29.90 in 10.0 mi South 12.7 mph 18.4 mph N/A   Clear
10:55 AM 62.6 °F 44.6 °F 52% 29.90 in 10.0 mi SSE 8.1 mph - N/A   Clear
11:15 AM 64.4 °F 44.6 °F 49% 29.90 in 10.0 mi SSE 10.4 mph - N/A   Clear
11:16 AM 64.4 °F 44.6 °F 49% 29.90 in 10.0 mi SSE 11.5 mph 16.1 mph N/A   Clear
11:35 AM 64.4 °F 42.8 °F 45% 29.89 in 10.0 mi South 12.7 mph 23.0 mph N/A   Clear
11:55 AM 64.4 °F 42.8 °F 45% 29.89 in 10.0 mi SSE 11.5 mph 19.6 mph N/A   Clear
11:56 AM 66.2 °F 42.8 °F 43% 29.89 in 10.0 mi SSE 13.8 mph 19.6 mph N/A   Clear
12:15 PM 66.2 °F 42.8 °F 43% 29.89 in 10.0 mi South 10.4 mph 24.2 mph N/A   Clear
12:16 PM 66.2 °F 42.8 °F 43% 29.89 in 10.0 mi SSE 10.4 mph 24.2 mph N/A   Clear
12:35 PM 66.2 °F 42.8 °F 43% 29.88 in 10.0 mi South 17.3 mph 24.2 mph N/A   Clear
12:55 PM 69.8 °F 42.8 °F 38% 29.88 in 10.0 mi South 13.8 mph 25.3 mph N/A   Clear
1:15 PM 68.0 °F 42.8 °F 40% 29.88 in 10.0 mi South 17.3 mph 23.0 mph N/A   Clear
1:35 PM 68.0 °F 42.8 °F 40% 29.87 in 10.0 mi South 13.8 mph 26.5 mph N/A   Clear
1:55 PM 69.8 °F 42.8 °F 38% 29.86 in 10.0 mi SSE 13.8 mph 20.7 mph N/A   Clear
2:15 PM 68.0 °F 42.8 °F 40% 29.86 in 10.0 mi South 16.1 mph 21.9 mph N/A   Clear
2:35 PM 68.0 °F 42.8 °F 40% 29.86 in 10.0 mi South 10.4 mph 16.1 mph N/A   Clear
2:36 PM 68.0 °F 42.8 °F 40% 29.86 in 10.0 mi South 11.5 mph 18.4 mph N/A   Clear
2:55 PM 68.0 °F 41.0 °F 37% 29.86 in 10.0 mi SSE 13.8 mph 20.7 mph N/A   Clear
3:15 PM 69.8 °F 39.2 °F 33% 29.86 in 10.0 mi South 13.8 mph 24.2 mph N/A   Clear
3:16 PM 69.8 °F 39.2 °F 33% 29.86 in 10.0 mi South 11.5 mph 24.2 mph N/A   Clear
3:35 PM 71.6 °F 39.2 °F 31% 29.85 in 10.0 mi South 13.8 mph 21.9 mph N/A   Clear
3:36 PM 71.6 °F 39.2 °F 31% 29.85 in 10.0 mi South 11.5 mph 21.9 mph N/A   Clear
4:15 PM 69.8 °F 37.4 °F 31% 29.86 in 10.0 mi South 16.1 mph 31.1 mph N/A   Clear
4:16 PM 69.8 °F 37.4 °F 31% 29.85 in 10.0 mi SSE 16.1 mph 28.8 mph N/A   Clear
4:35 PM 69.8 °F 37.4 °F 31% 29.86 in 10.0 mi South 11.5 mph 21.9 mph N/A   Clear
4:55 PM 69.8 °F 37.4 °F 31% 29.86 in 10.0 mi South 16.1 mph 25.3 mph N/A   Scattered Clouds
5:15 PM 68.0 °F 37.4 °F 33% 29.87 in 10.0 mi South 11.5 mph 21.9 mph N/A   Mostly Cloudy
5:16 PM 68.0 °F 39.2 °F 35% 29.87 in 10.0 mi South 10.4 mph 21.9 mph N/A   Overcast
5:35 PM 68.0 °F 39.2 °F 35% 29.87 in 10.0 mi SSE 9.2 mph - N/A   Overcast
5:55 PM 66.2 °F 41.0 °F 40% 29.88 in 10.0 mi SSE 6.9 mph - N/A   Overcast
6:15 PM 66.2 °F 41.0 °F 40% 29.89 in 10.0 mi SSE 6.9 mph - N/A   Overcast
6:35 PM 66.2 °F 41.0 °F 40% 29.89 in 10.0 mi SE 9.2 mph - N/A   Mostly Cloudy
6:55 PM 66.2 °F 41.0 °F 40% 29.90 in 10.0 mi SE 6.9 mph - N/A   Mostly Cloudy
6:56 PM 66.2 °F 41.0 °F 40% 29.90 in 10.0 mi SSE 6.9 mph - N/A   Mostly Cloudy
7:15 PM 64.4 °F 41.0 °F 42% 29.91 in 10.0 mi SSE 8.1 mph - N/A   Mostly Cloudy
7:35 PM 64.4 °F 41.0 °F 42% 29.92 in 10.0 mi SSE 5.8 mph - N/A   Scattered Clouds
7:36 PM 64.4 °F 41.0 °F 42% 29.91 in 10.0 mi SSE 5.8 mph - N/A   Scattered Clouds
7:55 PM 64.4 °F 41.0 °F 42% 29.92 in 10.0 mi SSE 5.8 mph - N/A   Clear
7:56 PM 64.4 °F 41.0 °F 42% 29.92 in 10.0 mi SSE 4.6 mph - N/A   Clear
8:15 PM 64.4 °F 41.0 °F 42% 29.93 in 10.0 mi SSE 8.1 mph - N/A   Scattered Clouds
8:16 PM 64.4 °F 41.0 °F 42% 29.93 in 10.0 mi SSE 6.9 mph - N/A   Scattered Clouds
8:35 PM 64.4 °F 41.0 °F 42% 29.93 in 10.0 mi SE 9.2 mph - N/A   Scattered Clouds
8:55 PM 62.6 °F 42.8 °F 48% 29.94 in 10.0 mi SSE 8.1 mph - N/A   Scattered Clouds
9:15 PM 62.6 °F 42.8 °F 48% 29.94 in 10.0 mi SSE 8.1 mph - N/A   Mostly Cloudy
9:16 PM 62.6 °F 42.8 °F 48% 29.94 in 10.0 mi SSE 9.2 mph - N/A   Mostly Cloudy
9:35 PM 62.6 °F 42.8 °F 48% 29.95 in 10.0 mi SSE 6.9 mph - N/A   Overcast
9:55 PM 62.6 °F 42.8 °F 48% 29.95 in 10.0 mi SSE 8.1 mph - N/A   Mostly Cloudy
10:15 PM 62.6 °F 42.8 °F 48% 29.96 in 10.0 mi SSE 6.9 mph - N/A   Light Drizzle
10:35 PM 60.8 °F 42.8 °F 52% 29.96 in 10.0 mi SSE 5.8 mph - N/A   Scattered Clouds
10:36 PM 60.8 °F 42.8 °F 52% 29.96 in 10.0 mi SSE 5.8 mph - N/A   Scattered Clouds
10:55 PM 60.8 °F 42.8 °F 52% 29.96 in 10.0 mi SSE 6.9 mph - N/A   Mostly Cloudy
10:56 PM 60.8 °F 42.8 °F 52% 29.97 in 10.0 mi SSE 5.8 mph - N/A   Mostly Cloudy
11:15 PM 60.8 °F 42.8 °F 52% 29.97 in 10.0 mi SSE 6.9 mph - N/A   Mostly Cloudy
11:35 PM 60.8 °F 42.8 °F 52% 29.98 in 10.0 mi SSE 5.8 mph - N/A   Overcast
11:36 PM 60.8 °F 42.8 °F 52% 29.98 in 10.0 mi SSE 5.8 mph - N/A   Overcast
11:55 PM 60.8 °F 42.8 °F 52% 29.98 in 10.0 mi SSE 5.8 mph - N/A   Mostly Cloudy